Event Mercenaries, Inc.

2015 Veteran's Day 5K

Overall Finish List

November 07, 2015


Results by Event Mercenaries, Inc.

5K Run

Place Name City Bib No Age Gender Total Time Pace
1 Matthew Owen Brevard NC 297 17 M 18:50.7 6:03/M
2 Abdi Green Brevard NC 173 12 M 19:55.6 6:24/M
3 Chris Whitlock Brevard NC 219 32 M 20:33.6 6:36/M
4 Brian Plumley Lake Toxaway NC 202 49 M 20:51.7 6:42/M
5 Don Goden Brevard NC 240 64 M 21:27.5 6:54/M
6 Joshua Voris Brevard NC 360 14 M 21:45.1 7:00/M
7 Tannor Whitmire Pisgah Forest NC 221 14 M 22:30.2 7:14/M
8 Chuck Megown Brevard NC 230 44 M 23:02.8 7:24/M
9 Aaron Alderman Brevard NC 121 40 M 23:08.8 7:26/M
10 Cassidee Cali Brevard NC 287 12 F 23:14.6 7:28/M
11 Talon Lance Brevard NC 363 12 M 23:15.2 7:29/M
12 Chris Collins Asheville NC 166 39 M 24:34.8 7:54/M
13 Nancy Brown Rosman NC 153 46 F 25:31.6 8:12/M
14 April Worley Woodfin NC 225 41 F 26:24.6 8:29/M
15 Rachel Pruitt Brevard NC 236 36 F 27:06.7 8:43/M
16 Tommy Owen Brevard NC 315 51 M 27:07.7 8:43/M
17 Carson Abram Brevard NC 276 10 M 27:08.3 8:43/M
18 Andrea Hamilton Penrose NC 281 36 F 27:37.6 8:53/M
19 Sarah Chappel Brevard NC 353 38 F 27:38.7 8:53/M
20 Anne Marie Phillips Brevard NC 186 54 F 27:50.9 8:57/M
21 Laura Hawkins Pisgah Forest NC 179 27 F 27:58.9 9:00/M
22 Benjamin Hawkins Pisgah Forest NC 174 26 M 27:59.0 9:00/M
23 Andrew Maciula Brevard NC 180 37 M 28:19.7 9:06/M
24 Tom Ammons Brevard NC 124 45 M 29:22.8 9:27/M
25 Tommy Dugger Brevard NC 168 72 M 29:46.8 9:34/M
26 Bridgette Whitlock Brevard NC 218 30 F 30:17.9 9:44/M
27 Nathan Owen Rosman NC 354 30 M 30:18.1 9:45/M
28 Joe Rybka Brevard NC 271 36 M 30:40.9 9:52/M
29 Cadence Sorrells Brevard NC 215 29 F 31:28.2 10:07/M
30 Melanie Cash Sapphire NC 156 48 F 31:42.8 10:12/M
31 Kathy Mlay Brevard NC 182 36 F 32:48.0 10:33/M
32 Michael Ball Pisgah Forest NC 147 42 M 33:32.0 10:47/M
33 Rachel Carnathan Lake Toxaway NC 327 12 F 35:27.9 11:24/M
34 Laura Carnathan Lake Toxaway NC 319 36 F 35:27.9 11:24/M
35 Alan Treloar Pisgah Forest NC 217 68 M 35:47.6 11:30/M
36 Hannah Phillips Brevard NC 197 26 F 36:38.2 11:47/M
37 Loran Nalley Brevard NC 185 25 F 38:45.8 12:28/M
38 Sandy Smith Brevard NC 355 75 F 1:00:48.1 19:33/M